{"data":{"norad_id":65479,"intl_designator":"2025-195X","name":"STARLINK-35096","alt_names":[],"object_type":"PAYLOAD","status":"ACTIVE","operator":null,"country":"US","launch_date":"2025-09-03","launch_site_code":"AFETR","launch_vehicle":null,"mission":null,"orbit_class":"UNKNOWN","rcs_meters":null,"size_class":null,"mass_kg":null,"dimensions":null,"purposes":["comms"],"wikipedia_slug":null,"has_3d_model":false,"image_url":null,"decayed_at":null,"tle_current":{"epoch":"2026-05-24T18:07:12.593568Z","epoch_age_seconds":103131,"freshness":"FRESH","line1":"1 65479U 25195X   26144.75500687  .00203995  00000+0  66586-2 0  9998","line2":"2 65479  53.1573 264.5740 0001135  91.4173 268.6958 15.30462224 41626","mean_motion":15.30462224,"eccentricity":0.0001135,"inclination_deg":53.1573,"raan_deg":264.574,"arg_perigee_deg":91.4173,"mean_anomaly_deg":268.6958,"bstar":0.0066586,"rev_number":4162,"period_min":94.08922202839,"perigee_km":473.65446100673,"apogee_km":475.2099942214,"semimajor_km":6852.5692276141,"source":"CELESTRAK","updated_at":"2026-05-25T13:38:20.816465Z"}}}